date,time,SUV Intensity [MED/Hr],UV Index,Daily total [MED],Since Last [MED]
03/06/2023,00:02:32,0.001,0.0,0.0,0.0
03/06/2023,00:03:31,0.000,0.0,0.0,0.0
03/06/2023,00:04:31,0.000,0.0,0.0,0.0
03/06/2023,00:05:31,0.000,0.0,0.0,0.0
03/06/2023,00:06:31,0.000,0.0,0.0,0.0
03/06/2023,00:07:31,0.001,0.0,0.0,0.0
03/06/2023,00:08:31,0.000,0.0,0.0,0.0
03/06/2023,00:09:31,0.000,0.0,0.0,0.0
03/06/2023,00:10:31,0.000,0.0,0.0,0.0
03/06/2023,00:11:31,-0.000,0.0,0.0,0.0
03/06/2023,00:12:31,0.000,0.0,0.0,0.0
03/06/2023,00:13:31,0.000,0.0,0.0,0.0
03/06/2023,00:14:31,0.000,0.0,0.0,0.0
03/06/2023,00:15:30,0.000,0.0,0.0,0.0
03/06/2023,00:16:31,0.001,0.0,0.0,0.0
03/06/2023,00:17:31,-0.000,0.0,0.0,0.0
03/06/2023,00:18:31,-0.001,0.0,0.0,0.0
03/06/2023,00:19:31,0.000,0.0,0.0,0.0
03/06/2023,00:20:31,0.001,0.0,0.0,0.0
03/06/2023,00:21:31,0.000,0.0,0.0,0.0
03/06/2023,00:22:31,-0.000,0.0,0.0,0.0
03/06/2023,00:23:31,0.001,0.0,0.0,0.0
03/06/2023,00:24:31,0.000,0.0,0.0,0.0
03/06/2023,00:25:31,0.000,0.0,0.0,0.0
03/06/2023,00:26:30,0.000,0.0,0.0,0.0
03/06/2023,00:27:31,-0.001,0.0,0.0,0.0
03/06/2023,00:28:31,0.001,0.0,0.0,0.0
03/06/2023,00:29:31,0.001,0.0,0.0,0.0
03/06/2023,00:30:31,0.001,0.0,0.0,0.0
03/06/2023,00:31:30,-0.001,0.0,0.0,0.0
03/06/2023,00:32:31,0.000,0.0,0.0,0.0
03/06/2023,00:33:31,0.000,0.0,0.0,0.0
03/06/2023,00:34:31,-0.001,0.0,0.0,0.0
03/06/2023,00:35:31,0.000,0.0,0.0,0.0
03/06/2023,00:36:30,0.000,0.0,0.0,0.0
03/06/2023,00:37:31,-0.000,0.0,0.0,0.0
03/06/2023,00:38:31,0.000,0.0,0.0,0.0
03/06/2023,00:39:31,0.000,0.0,0.0,0.0
03/06/2023,00:40:31,0.001,0.0,0.0,0.0
03/06/2023,00:41:31,0.000,0.0,0.0,0.0
03/06/2023,00:42:31,0.000,0.0,0.0,0.0
03/06/2023,00:43:31,-0.000,0.0,0.0,0.0
03/06/2023,00:44:31,0.000,0.0,0.0,0.0
03/06/2023,00:45:31,0.000,0.0,0.0,0.0
03/06/2023,00:46:31,0.001,0.0,0.0,0.0
03/06/2023,00:47:31,0.000,0.0,0.0,0.0
03/06/2023,00:48:31,0.000,0.0,0.0,0.0
03/06/2023,00:49:31,0.001,0.0,0.0,0.0
03/06/2023,00:50:31,-0.001,0.0,0.0,0.0
03/06/2023,00:51:31,-0.001,0.0,0.0,0.0
03/06/2023,00:52:31,0.001,0.0,0.0,0.0
03/06/2023,00:53:32,0.000,0.0,0.0,0.0
03/06/2023,00:54:31,0.001,0.0,0.0,0.0
03/06/2023,00:55:31,0.000,0.0,0.0,0.0
03/06/2023,00:56:31,0.000,0.0,0.0,0.0
03/06/2023,00:57:31,0.001,0.0,0.0,0.0
03/06/2023,00:58:31,0.000,0.0,0.0,0.0
03/06/2023,00:59:32,0.000,0.0,0.0,0.0
03/06/2023,01:00:31,0.000,0.0,0.0,0.0
03/06/2023,01:01:31,-0.001,0.0,0.0,0.0
03/06/2023,01:02:31,0.000,0.0,0.0,0.0
03/06/2023,01:03:31,-0.001,0.0,0.0,0.0
03/06/2023,01:04:31,0.000,0.0,0.0,0.0
03/06/2023,01:05:31,-0.001,0.0,0.0,0.0
03/06/2023,01:06:31,0.000,0.0,0.0,0.0
03/06/2023,01:07:31,-0.000,0.0,0.0,0.0
03/06/2023,01:08:32,0.000,0.0,0.0,0.0
03/06/2023,01:09:31,-0.000,0.0,0.0,0.0
03/06/2023,01:10:31,0.001,0.0,0.0,0.0
03/06/2023,01:11:31,0.000,0.0,0.0,0.0
03/06/2023,01:12:31,0.001,0.0,0.0,0.0
03/06/2023,01:13:31,0.000,0.0,0.0,0.0
03/06/2023,01:14:31,0.000,0.0,0.0,0.0
03/06/2023,01:15:31,-0.000,0.0,0.0,0.0
03/06/2023,01:16:31,0.000,0.0,0.0,0.0
03/06/2023,01:17:31,-0.001,0.0,0.0,0.0
03/06/2023,01:18:31,0.000,0.0,0.0,0.0
03/06/2023,01:19:32,-0.001,0.0,0.0,0.0
03/06/2023,01:20:31,0.000,0.0,0.0,0.0
03/06/2023,01:21:31,-0.000,0.0,0.0,0.0
03/06/2023,01:22:31,0.000,0.0,0.0,0.0
03/06/2023,01:23:31,0.000,0.0,0.0,0.0
03/06/2023,01:24:31,0.000,0.0,0.0,0.0
03/06/2023,01:25:31,-0.001,0.0,0.0,0.0
03/06/2023,01:26:32,0.001,0.0,0.0,0.0
03/06/2023,01:27:31,0.000,0.0,0.0,0.0
03/06/2023,01:28:31,0.000,0.0,0.0,0.0
03/06/2023,01:29:31,0.000,0.0,0.0,0.0
03/06/2023,01:30:31,0.000,0.0,0.0,0.0
03/06/2023,01:31:31,0.000,0.0,0.0,0.0
03/06/2023,01:32:31,0.001,0.0,0.0,0.0
03/06/2023,01:33:31,0.000,0.0,0.0,0.0
03/06/2023,01:34:31,0.001,0.0,0.0,0.0
03/06/2023,01:35:31,0.000,0.0,0.0,0.0
03/06/2023,01:36:31,0.000,0.0,0.0,0.0
03/06/2023,01:37:31,0.000,0.0,0.0,0.0
03/06/2023,01:38:31,0.000,0.0,0.0,0.0
03/06/2023,01:39:31,0.000,0.0,0.0,0.0
03/06/2023,01:40:31,0.000,0.0,0.0,0.0
03/06/2023,01:41:31,0.000,0.0,0.0,0.0
03/06/2023,01:42:31,0.000,0.0,0.0,0.0
03/06/2023,01:43:31,0.000,0.0,0.0,0.0
03/06/2023,01:44:31,0.001,0.0,0.0,0.0
03/06/2023,01:45:31,0.000,0.0,0.0,0.0
03/06/2023,01:46:31,-0.000,0.0,0.0,0.0
03/06/2023,01:47:31,0.000,0.0,0.0,0.0
03/06/2023,01:48:31,-0.001,0.0,0.0,0.0
03/06/2023,01:49:31,0.001,0.0,0.0,0.0
03/06/2023,01:50:32,0.000,0.0,0.0,0.0
03/06/2023,01:51:31,0.000,0.0,0.0,0.0
03/06/2023,01:52:31,-0.001,0.0,0.0,0.0
03/06/2023,01:53:32,0.001,0.0,0.0,0.0
03/06/2023,01:54:31,0.000,0.0,0.0,0.0
03/06/2023,01:55:31,0.000,0.0,0.0,0.0
03/06/2023,01:56:31,-0.001,0.0,0.0,0.0
03/06/2023,01:57:31,0.000,0.0,0.0,0.0
03/06/2023,01:58:31,0.000,0.0,0.0,0.0
03/06/2023,01:59:31,-0.000,0.0,0.0,0.0
03/06/2023,02:00:31,0.000,0.0,0.0,0.0
03/06/2023,02:01:31,0.001,0.0,0.0,0.0
03/06/2023,02:02:31,-0.001,0.0,0.0,0.0
03/06/2023,02:03:31,0.000,0.0,0.0,0.0
03/06/2023,02:04:31,0.001,0.0,0.0,0.0
03/06/2023,02:05:31,0.000,0.0,0.0,0.0
03/06/2023,02:06:31,0.000,0.0,0.0,0.0
03/06/2023,02:07:31,0.000,0.0,0.0,0.0
03/06/2023,02:08:31,0.000,0.0,0.0,0.0
03/06/2023,02:09:32,0.001,0.0,0.0,0.0
03/06/2023,02:10:31,0.001,0.0,0.0,0.0
03/06/2023,02:11:31,0.000,0.0,0.0,0.0
03/06/2023,02:12:31,0.000,0.0,0.0,0.0
03/06/2023,02:13:31,0.001,0.0,0.0,0.0
03/06/2023,02:14:31,0.000,0.0,0.0,0.0
03/06/2023,02:15:31,0.000,0.0,0.0,0.0
03/06/2023,02:16:31,0.001,0.0,0.0,0.0
03/06/2023,02:17:31,0.000,0.0,0.0,0.0
03/06/2023,02:18:31,0.001,0.0,0.0,0.0
03/06/2023,02:19:31,0.000,0.0,0.0,0.0
03/06/2023,02:20:31,-0.000,0.0,0.0,0.0
03/06/2023,02:21:31,0.000,0.0,0.0,0.0
03/06/2023,02:22:31,0.000,0.0,0.0,0.0
03/06/2023,02:23:31,0.001,0.0,0.0,0.0
03/06/2023,02:24:31,0.001,0.0,0.0,0.0
03/06/2023,02:25:31,0.000,0.0,0.0,0.0
03/06/2023,02:26:31,0.000,0.0,0.0,0.0
03/06/2023,02:27:31,0.000,0.0,0.0,0.0
03/06/2023,02:28:32,0.001,0.0,0.0,0.0
03/06/2023,02:29:31,-0.000,0.0,0.0,0.0
03/06/2023,02:30:31,0.000,0.0,0.0,0.0
03/06/2023,02:31:31,-0.000,0.0,0.0,0.0
03/06/2023,02:32:32,0.001,0.0,0.0,0.0
03/06/2023,02:33:31,0.001,0.0,0.0,0.0
03/06/2023,02:34:31,0.001,0.0,0.0,0.0
03/06/2023,02:35:31,-0.000,0.0,0.0,0.0
03/06/2023,02:36:32,0.001,0.0,0.0,0.0
03/06/2023,02:37:31,0.001,0.0,0.0,0.0
03/06/2023,02:38:31,0.001,0.0,0.0,0.0
03/06/2023,02:39:31,0.001,0.0,0.0,0.0
03/06/2023,02:40:31,0.001,0.0,0.0,0.0
03/06/2023,02:41:32,0.001,0.0,0.0,0.0
03/06/2023,02:42:31,0.001,0.0,0.0,0.0
03/06/2023,02:43:31,0.001,0.0,0.0,0.0
03/06/2023,02:44:31,-0.000,0.0,0.0,0.0
03/06/2023,02:45:31,0.001,0.0,0.0,0.0
03/06/2023,02:46:31,-0.000,0.0,0.0,0.0
03/06/2023,02:47:31,0.001,0.0,0.0,0.0
03/06/2023,02:48:31,0.001,0.0,0.0,0.0
03/06/2023,02:49:31,0.001,0.0,0.0,0.0
03/06/2023,02:50:31,0.001,0.0,0.0,0.0
03/06/2023,02:51:31,0.001,0.0,0.0,0.0
03/06/2023,02:52:31,0.001,0.0,0.0,0.0
03/06/2023,02:53:31,0.000,0.0,0.0,0.0
03/06/2023,02:54:31,0.001,0.0,0.0,0.0
03/06/2023,02:55:31,0.001,0.0,0.0,0.0
03/06/2023,02:56:31,0.001,0.0,0.0,0.0
03/06/2023,02:57:32,0.001,0.0,0.0,0.0
03/06/2023,02:58:31,0.001,0.0,0.0,0.0
03/06/2023,02:59:31,-0.000,0.0,0.0,0.0
03/06/2023,03:00:31,0.000,0.0,0.0,0.0
03/06/2023,03:01:31,0.001,0.0,0.0,0.0
03/06/2023,03:02:32,0.001,0.0,0.0,0.0
03/06/2023,03:03:32,0.001,0.0,0.0,0.0
03/06/2023,03:04:31,0.001,0.0,0.0,0.0
03/06/2023,03:05:32,0.001,0.0,0.0,0.0
03/06/2023,03:06:31,0.001,0.0,0.0,0.0
03/06/2023,03:07:31,0.001,0.0,0.0,0.0
03/06/2023,03:08:31,0.001,0.0,0.0,0.0
03/06/2023,03:09:31,0.001,0.0,0.0,0.0
03/06/2023,03:10:31,0.001,0.0,0.0,0.0
03/06/2023,03:11:32,0.001,0.0,0.0,0.0
03/06/2023,03:12:31,0.001,0.0,0.0,0.0
03/06/2023,03:13:31,0.001,0.0,0.0,0.0
03/06/2023,03:14:31,0.001,0.0,0.0,0.0
03/06/2023,03:15:31,0.001,0.0,0.0,0.0
03/06/2023,03:16:32,0.001,0.0,0.0,0.0
03/06/2023,03:17:32,0.001,0.0,0.0,0.0
03/06/2023,03:18:31,0.001,0.0,0.0,0.0
03/06/2023,03:19:31,0.001,0.0,0.0,0.0
03/06/2023,03:20:31,0.001,0.0,0.0,0.0
03/06/2023,03:21:32,0.001,0.0,0.0,0.0
03/06/2023,03:22:31,0.001,0.0,0.0,0.0
03/06/2023,03:23:31,0.001,0.0,0.0,0.0
03/06/2023,03:24:32,0.001,0.0,0.0,0.0
03/06/2023,03:25:32,0.001,0.0,0.0,0.0
03/06/2023,03:26:31,0.001,0.0,0.0,0.0
03/06/2023,03:27:31,0.001,0.0,0.0,0.0
03/06/2023,03:28:31,0.001,0.0,0.0,0.0
03/06/2023,03:29:31,0.001,0.0,0.0,0.0
03/06/2023,03:30:31,0.001,0.0,0.0,0.0
03/06/2023,03:31:31,0.001,0.0,0.0,0.0
03/06/2023,03:32:32,0.001,0.0,0.0,0.0
03/06/2023,03:33:31,0.001,0.0,0.0,0.0
03/06/2023,03:34:31,0.002,0.0,0.0,0.0
03/06/2023,03:35:32,0.001,0.0,0.0,0.0
03/06/2023,03:36:31,0.001,0.0,0.0,0.0
03/06/2023,03:37:32,0.001,0.0,0.0,0.0
03/06/2023,03:38:32,0.001,0.0,0.0,0.0
03/06/2023,03:39:32,0.002,0.0,0.0,0.0
03/06/2023,03:40:31,0.001,0.0,0.0,0.0
03/06/2023,03:41:31,0.002,0.0,0.0,0.0
03/06/2023,03:42:32,0.001,0.0,0.0,0.0
03/06/2023,03:43:32,0.001,0.0,0.0,0.0
03/06/2023,03:44:31,0.002,0.0,0.0,0.0
03/06/2023,03:45:31,0.002,0.0,0.0,0.0
03/06/2023,03:46:32,0.002,0.0,0.0,0.0
03/06/2023,03:47:31,0.002,0.0,0.0,0.0
03/06/2023,03:48:31,0.002,0.0,0.0,0.0
03/06/2023,03:49:31,0.002,0.0,0.0,0.0
03/06/2023,03:50:32,0.003,0.0,0.0,0.0
03/06/2023,03:51:31,0.002,0.0,0.0,0.0
03/06/2023,03:52:31,0.003,0.0,0.0,0.0
03/06/2023,03:53:32,0.003,0.0,0.0,0.0
03/06/2023,03:54:31,0.002,0.0,0.0,0.0
03/06/2023,03:55:31,0.003,0.0,0.0,0.0
03/06/2023,03:56:32,0.002,0.0,0.0,0.0
03/06/2023,03:57:31,0.003,0.0,0.0,0.0
03/06/2023,03:58:31,0.004,0.0,0.0,0.0
03/06/2023,03:59:32,0.004,0.0,0.0,0.0
03/06/2023,04:00:31,0.004,0.0,0.0,0.0
03/06/2023,04:01:31,0.004,0.0,0.0,0.0
03/06/2023,04:02:32,0.005,0.0,0.0,0.0
03/06/2023,04:03:32,0.004,0.0,0.0,0.0
03/06/2023,04:04:31,0.005,0.0,0.0,0.0
03/06/2023,04:05:31,0.005,0.0,0.0,0.0
03/06/2023,04:06:31,0.005,0.0,0.0,0.0
03/06/2023,04:07:32,0.005,0.0,0.0,0.0
03/06/2023,04:08:31,0.005,0.0,0.0,0.0
03/06/2023,04:09:31,0.006,0.0,0.0,0.0
03/06/2023,04:10:32,0.006,0.0,0.0,0.0
03/06/2023,04:11:32,0.006,0.0,0.0,0.0
03/06/2023,04:12:32,0.007,0.0,0.0,0.0
03/06/2023,04:13:31,0.006,0.0,0.0,0.0
03/06/2023,04:14:31,0.007,0.0,0.0,0.0
03/06/2023,04:15:32,0.007,0.0,0.001,0.001
03/06/2023,04:16:32,0.009,0.0,0.001,0.0
03/06/2023,04:17:31,0.007,0.0,0.001,0.0
03/06/2023,04:18:32,0.008,0.0,0.001,0.0
03/06/2023,04:19:32,0.009,0.0,0.001,0.0
03/06/2023,04:20:31,0.009,0.0,0.001,0.0
03/06/2023,04:21:32,0.009,0.0,0.001,0.0
03/06/2023,04:22:31,0.009,0.0,0.002,0.001
03/06/2023,04:23:31,0.010,0.0,0.002,0.0
03/06/2023,04:24:31,0.010,0.0,0.002,0.0
03/06/2023,04:25:31,0.011,0.0,0.002,0.0
03/06/2023,04:26:31,0.011,0.0,0.002,0.0
03/06/2023,04:27:32,0.012,0.0,0.002,0.0
03/06/2023,04:28:31,0.012,0.0,0.003,0.001
03/06/2023,04:29:31,0.013,0.0,0.003,0.0
03/06/2023,04:30:32,0.013,0.0,0.003,0.0
03/06/2023,04:31:31,0.013,0.0,0.003,0.0
03/06/2023,04:32:32,0.014,0.0,0.003,0.0
03/06/2023,04:33:31,0.014,0.0,0.004,0.001
03/06/2023,04:34:32,0.014,0.0,0.004,0.0
03/06/2023,04:35:31,0.014,0.0,0.004,0.0
03/06/2023,04:36:32,0.015,0.0,0.004,0.0
03/06/2023,04:37:31,0.017,0.0,0.005,0.001
03/06/2023,04:38:31,0.017,0.0,0.005,0.0
03/06/2023,04:39:32,0.017,0.0,0.005,0.0
03/06/2023,04:40:31,0.017,0.0,0.006,0.001
03/06/2023,04:41:31,0.018,0.0,0.006,0.0
03/06/2023,04:42:32,0.019,0.0,0.006,0.0
03/06/2023,04:43:32,0.019,0.0,0.006,0.0
03/06/2023,04:44:31,0.020,0.0,0.007,0.001
03/06/2023,04:45:32,0.020,0.0,0.007,0.0
03/06/2023,04:46:31,0.021,0.0,0.007,0.0
03/06/2023,04:47:31,0.022,0.0,0.008,0.001
03/06/2023,04:48:31,0.022,0.0,0.008,0.0
03/06/2023,04:49:31,0.023,0.0,0.009,0.001
03/06/2023,04:50:31,0.024,0.0,0.009,0.0
03/06/2023,04:51:31,0.025,0.0,0.009,0.0
03/06/2023,04:52:31,0.026,0.0,0.01,0.001
03/06/2023,04:53:31,0.026,0.0,0.01,0.0
03/06/2023,04:54:32,0.026,0.0,0.011,0.001
03/06/2023,04:55:31,0.027,0.0,0.011,0.0
03/06/2023,04:56:31,0.027,0.0,0.012,0.001
03/06/2023,04:57:32,0.029,0.0,0.012,0.0
03/06/2023,04:59:02,0.030,0.0,0.013,0.001
03/06/2023,05:00:32,0.032,0.0,0.013,0.0
03/06/2023,05:01:32,0.032,0.0,0.014,0.001
03/06/2023,05:02:32,0.033,0.0,0.015,0.001
03/06/2023,05:03:31,0.034,0.0,0.015,0.0
03/06/2023,05:04:31,0.035,0.0,0.016,0.001
03/06/2023,05:05:32,0.036,0.0,0.016,0.0
03/06/2023,05:06:31,0.036,0.0,0.017,0.001
03/06/2023,05:07:31,0.033,0.0,0.017,0.0
03/06/2023,05:08:32,0.035,0.0,0.018,0.001
03/06/2023,05:09:32,0.040,0.0,0.019,0.001
03/06/2023,05:10:31,0.040,0.0,0.019,0.0
03/06/2023,05:11:31,0.042,0.0,0.02,0.001
03/06/2023,05:12:31,0.043,0.0,0.021,0.001
03/06/2023,05:13:32,0.044,0.0,0.021,0.0
03/06/2023,05:14:31,0.045,0.0,0.022,0.001
03/06/2023,05:15:32,0.047,0.0,0.023,0.001
03/06/2023,05:16:31,0.048,0.0,0.024,0.001
03/06/2023,05:17:32,0.049,0.0,0.025,0.001
03/06/2023,05:18:31,0.050,0.0,0.025,0.0
03/06/2023,05:19:32,0.051,0.0,0.026,0.001
03/06/2023,05:20:31,0.052,0.0,0.027,0.001
03/06/2023,05:21:32,0.054,0.0,0.028,0.001
03/06/2023,05:22:32,0.055,0.0,0.029,0.001
03/06/2023,05:23:31,0.057,0.0,0.03,0.001
03/06/2023,05:24:32,0.057,0.0,0.031,0.001
03/06/2023,05:25:31,0.059,0.0,0.032,0.001
03/06/2023,05:26:32,0.061,0.0,0.033,0.001
03/06/2023,05:27:32,0.061,0.0,0.034,0.001
03/06/2023,05:28:31,0.063,0.0,0.035,0.001
03/06/2023,05:29:31,0.064,0.0,0.036,0.001
03/06/2023,05:30:32,0.065,0.0,0.037,0.001
03/06/2023,05:31:32,0.067,0.0,0.038,0.001
03/06/2023,05:32:32,0.068,0.0,0.039,0.001
03/06/2023,05:33:31,0.070,0.0,0.04,0.001
03/06/2023,05:34:31,0.072,0.0,0.041,0.001
03/06/2023,05:35:32,0.073,0.0,0.043,0.002
03/06/2023,05:36:32,0.074,0.0,0.044,0.001
03/06/2023,05:37:31,0.076,0.0,0.045,0.001
03/06/2023,05:38:32,0.077,0.0,0.046,0.001
03/06/2023,05:39:32,0.080,0.0,0.048,0.002
03/06/2023,05:40:31,0.083,0.0,0.049,0.001
03/06/2023,05:41:32,0.086,0.0,0.051,0.002
03/06/2023,05:42:32,0.088,0.0,0.052,0.001
03/06/2023,05:43:32,0.088,0.0,0.053,0.001
03/06/2023,05:44:32,0.086,0.0,0.055,0.002
03/06/2023,05:45:32,0.082,0.0,0.056,0.001
03/06/2023,05:46:33,0.082,0.0,0.058,0.002
03/06/2023,05:47:31,0.079,0.0,0.059,0.001
03/06/2023,05:48:31,0.081,0.0,0.06,0.001
03/06/2023,05:49:31,0.083,0.0,0.062,0.002
03/06/2023,05:50:31,0.087,0.0,0.063,0.001
03/06/2023,05:51:32,0.092,0.0,0.065,0.002
03/06/2023,05:52:32,0.093,0.0,0.066,0.001
03/06/2023,05:53:31,0.093,0.0,0.068,0.002
03/06/2023,05:54:31,0.096,0.0,0.069,0.001
03/06/2023,05:55:31,0.096,0.0,0.071,0.002
03/06/2023,05:56:32,0.100,0.0,0.072,0.001
03/06/2023,05:57:32,0.104,0.0,0.074,0.002
03/06/2023,05:58:31,0.106,0.0,0.076,0.002
03/06/2023,05:59:32,0.108,0.0,0.078,0.002
03/06/2023,06:00:32,0.112,0.0,0.08,0.002
03/06/2023,06:01:32,0.117,0.0,0.081,0.001
03/06/2023,06:02:31,0.116,0.0,0.083,0.002
03/06/2023,06:03:32,0.111,0.0,0.085,0.002
03/06/2023,06:04:32,0.107,0.0,0.087,0.002
03/06/2023,06:05:31,0.104,0.0,0.089,0.002
03/06/2023,06:06:31,0.103,0.0,0.091,0.002
03/06/2023,06:07:32,0.105,0.0,0.092,0.001
03/06/2023,06:08:31,0.105,0.0,0.094,0.002
03/06/2023,06:09:32,0.106,0.0,0.096,0.002
03/06/2023,06:10:32,0.107,0.0,0.098,0.002
03/06/2023,06:11:31,0.109,0.0,0.099,0.001
03/06/2023,06:12:31,0.109,0.0,0.101,0.002
03/06/2023,06:13:32,0.110,0.0,0.103,0.002
03/06/2023,06:14:31,0.113,0.0,0.105,0.002
03/06/2023,06:15:32,0.114,0.0,0.107,0.002
03/06/2023,06:16:32,0.114,0.0,0.109,0.002
03/06/2023,06:17:31,0.112,0.0,0.111,0.002
03/06/2023,06:18:32,0.118,0.0,0.113,0.002
03/06/2023,06:19:31,0.119,0.0,0.114,0.001
03/06/2023,06:20:32,0.127,0.0,0.117,0.003
03/06/2023,06:21:31,0.132,0.0,0.119,0.002
03/06/2023,06:22:31,0.133,0.0,0.121,0.002
03/06/2023,06:23:32,0.132,0.0,0.123,0.002
03/06/2023,06:24:32,0.133,0.0,0.125,0.002
03/06/2023,06:25:31,0.122,0.0,0.127,0.002
03/06/2023,06:26:32,0.121,0.0,0.13,0.003
03/06/2023,06:27:31,0.135,0.0,0.132,0.002
03/06/2023,06:28:32,0.135,0.0,0.134,0.002
03/06/2023,06:29:31,0.136,0.0,0.136,0.002
03/06/2023,06:30:32,0.134,0.0,0.138,0.002
03/06/2023,06:31:31,0.136,0.0,0.141,0.003
03/06/2023,06:32:32,0.146,0.0,0.143,0.002
03/06/2023,06:33:31,0.156,0.0,0.145,0.002
03/06/2023,06:34:32,0.148,0.0,0.148,0.003
03/06/2023,06:35:32,0.149,0.0,0.151,0.003
03/06/2023,06:36:32,0.155,0.0,0.153,0.002
03/06/2023,06:37:31,0.155,0.0,0.156,0.003
03/06/2023,06:38:31,0.148,0.0,0.158,0.002
03/06/2023,06:39:32,0.145,0.0,0.161,0.003
03/06/2023,06:40:32,0.155,0.0,0.163,0.002
03/06/2023,06:41:32,0.164,0.0,0.166,0.003
03/06/2023,06:42:32,0.168,0.0,0.169,0.003
03/06/2023,06:43:31,0.160,0.0,0.171,0.002
03/06/2023,06:44:31,0.170,0.0,0.174,0.003
03/06/2023,06:45:32,0.166,0.0,0.177,0.003
03/06/2023,06:46:32,0.162,0.0,0.18,0.003
03/06/2023,06:47:32,0.153,0.0,0.182,0.002
03/06/2023,06:48:31,0.175,0.0,0.185,0.003
03/06/2023,06:49:32,0.168,0.0,0.188,0.003
03/06/2023,06:50:32,0.172,0.0,0.191,0.003
03/06/2023,06:51:32,0.162,0.0,0.193,0.002
03/06/2023,06:52:31,0.173,0.0,0.196,0.003
03/06/2023,06:53:32,0.168,0.0,0.199,0.003
03/06/2023,06:54:32,0.187,0.0,0.202,0.003
03/06/2023,06:55:31,0.180,0.0,0.205,0.003
03/06/2023,06:56:32,0.168,0.0,0.208,0.003
03/06/2023,06:57:32,0.196,0.0,0.211,0.003
03/06/2023,06:58:32,0.192,0.0,0.214,0.003
03/06/2023,06:59:32,0.200,0.0,0.217,0.003
03/06/2023,07:00:32,0.211,0.0,0.221,0.004
03/06/2023,07:01:32,0.212,0.0,0.224,0.003
03/06/2023,07:02:32,0.241,1.0,0.228,0.004
03/06/2023,07:03:31,0.226,1.0,0.232,0.004
03/06/2023,07:04:32,0.211,0.0,0.236,0.004
03/06/2023,07:05:32,0.217,0.0,0.239,0.003
03/06/2023,07:06:32,0.222,1.0,0.243,0.004
03/06/2023,07:07:32,0.228,1.0,0.247,0.004
03/06/2023,07:08:31,0.237,1.0,0.251,0.004
03/06/2023,07:09:32,0.215,0.0,0.254,0.003
03/06/2023,07:10:31,0.219,1.0,0.258,0.004
03/06/2023,07:11:32,0.214,0.0,0.262,0.004
03/06/2023,07:12:32,0.205,0.0,0.265,0.003
03/06/2023,07:13:32,0.205,0.0,0.269,0.004
03/06/2023,07:14:32,0.224,1.0,0.272,0.003
03/06/2023,07:15:31,0.254,1.0,0.276,0.004
03/06/2023,07:16:32,0.242,1.0,0.28,0.004
03/06/2023,07:17:31,0.280,1.0,0.285,0.005
03/06/2023,07:18:32,0.269,1.0,0.289,0.004
03/06/2023,07:19:31,0.264,1.0,0.294,0.005
03/06/2023,07:20:32,0.267,1.0,0.298,0.004
03/06/2023,07:21:32,0.271,1.0,0.303,0.005
03/06/2023,07:22:32,0.288,1.0,0.307,0.004
03/06/2023,07:23:31,0.269,1.0,0.312,0.005
03/06/2023,07:24:31,0.256,1.0,0.316,0.004
03/06/2023,07:25:32,0.276,1.0,0.321,0.005
03/06/2023,07:26:32,0.296,1.0,0.325,0.004
03/06/2023,07:27:32,0.297,1.0,0.33,0.005
03/06/2023,07:28:32,0.305,1.0,0.335,0.005
03/06/2023,07:29:32,0.303,1.0,0.34,0.005
03/06/2023,07:30:31,0.416,1.0,0.346,0.006
03/06/2023,07:32:01,0.321,1.0,0.355,0.009
03/06/2023,07:33:32,0.313,1.0,0.363,0.008
03/06/2023,07:34:32,0.316,1.0,0.368,0.005
03/06/2023,07:35:32,0.320,1.0,0.373,0.005
03/06/2023,07:36:32,0.362,1.0,0.379,0.006
03/06/2023,07:37:32,0.341,1.0,0.385,0.006
03/06/2023,07:38:32,0.342,1.0,0.391,0.006
03/06/2023,07:39:31,0.338,1.0,0.396,0.005
03/06/2023,07:40:32,0.353,1.0,0.402,0.006
03/06/2023,07:41:31,0.345,1.0,0.408,0.006
03/06/2023,07:42:32,0.349,1.0,0.414,0.006
03/06/2023,07:43:31,0.341,1.0,0.419,0.005
03/06/2023,07:44:32,0.348,1.0,0.425,0.006
03/06/2023,07:45:32,0.355,1.0,0.431,0.006
03/06/2023,07:46:32,0.370,1.0,0.437,0.006
03/06/2023,07:47:32,0.378,1.0,0.443,0.006
03/06/2023,07:48:31,0.381,1.0,0.45,0.007
03/06/2023,07:49:32,0.380,1.0,0.456,0.006
03/06/2023,07:50:32,0.420,1.0,0.463,0.007
03/06/2023,07:51:32,0.400,1.0,0.47,0.007
03/06/2023,07:52:32,0.382,1.0,0.476,0.006
03/06/2023,07:53:31,0.388,1.0,0.482,0.006
03/06/2023,07:54:31,0.410,1.0,0.489,0.007
03/06/2023,07:55:32,0.407,1.0,0.496,0.007
03/06/2023,07:56:32,0.393,1.0,0.503,0.007
03/06/2023,07:57:31,0.384,1.0,0.509,0.006
03/06/2023,07:58:32,0.381,1.0,0.515,0.006
03/06/2023,07:59:31,0.385,1.0,0.522,0.007
03/06/2023,08:00:32,0.423,1.0,0.529,0.007
03/06/2023,08:01:32,0.445,1.0,0.536,0.007
03/06/2023,08:02:32,0.464,1.0,0.544,0.008
03/06/2023,08:03:32,0.460,1.0,0.551,0.007
03/06/2023,08:04:31,0.457,1.0,0.559,0.008
03/06/2023,08:05:32,0.457,1.0,0.567,0.008
03/06/2023,08:06:32,0.453,1.0,0.574,0.007
03/06/2023,08:07:31,0.459,1.0,0.582,0.008
03/06/2023,08:08:32,0.480,1.0,0.59,0.008
03/06/2023,08:09:32,0.503,1.0,0.598,0.008
03/06/2023,08:10:32,0.539,1.0,0.607,0.009
03/06/2023,08:11:32,0.511,1.0,0.615,0.008
03/06/2023,08:12:32,0.497,1.0,0.624,0.009
03/06/2023,08:13:31,0.490,1.0,0.632,0.008
03/06/2023,08:14:32,0.491,1.0,0.64,0.008
03/06/2023,08:15:32,0.523,1.0,0.649,0.009
03/06/2023,08:16:31,0.669,2.0,0.658,0.009
03/06/2023,08:17:32,0.596,1.0,0.67,0.012
03/06/2023,08:18:31,0.549,1.0,0.68,0.01
03/06/2023,08:19:32,0.544,1.0,0.689,0.009
03/06/2023,08:20:31,0.551,1.0,0.698,0.009
03/06/2023,08:21:32,0.592,1.0,0.708,0.01
03/06/2023,08:22:32,0.616,1.0,0.718,0.01
03/06/2023,08:23:31,0.626,1.0,0.728,0.01
03/06/2023,08:24:32,0.716,2.0,0.739,0.011
03/06/2023,08:25:32,0.666,2.0,0.751,0.012
03/06/2023,08:26:32,0.708,2.0,0.762,0.011
03/06/2023,08:27:31,0.680,2.0,0.775,0.013
03/06/2023,08:28:32,0.663,2.0,0.786,0.011
03/06/2023,08:29:32,0.711,2.0,0.798,0.012
03/06/2023,08:30:31,0.734,2.0,0.812,0.014
03/06/2023,08:31:32,1.022,2.0,0.827,0.015
03/06/2023,08:32:32,0.757,2.0,0.843,0.016
03/06/2023,08:33:32,0.814,2.0,0.857,0.014
03/06/2023,08:34:32,1.056,2.0,0.874,0.017
03/06/2023,08:35:32,1.037,2.0,0.891,0.017
03/06/2023,08:36:32,0.970,2.0,0.909,0.018
03/06/2023,08:37:33,0.984,2.0,0.926,0.017
03/06/2023,08:38:32,0.864,2.0,0.94,0.014
03/06/2023,08:39:31,0.792,2.0,0.953,0.013
03/06/2023,08:40:32,0.787,2.0,0.966,0.013
03/06/2023,08:41:32,0.886,2.0,0.98,0.014
03/06/2023,08:42:32,0.844,2.0,0.994,0.014
03/06/2023,08:43:31,0.716,2.0,1.006,0.012
03/06/2023,08:44:33,0.764,2.0,1.018,0.012
03/06/2023,08:45:32,0.733,2.0,1.031,0.013
03/06/2023,08:46:32,0.873,2.0,1.044,0.013
03/06/2023,08:47:31,1.157,3.0,1.062,0.018
03/06/2023,08:48:32,1.014,2.0,1.079,0.017
03/06/2023,08:49:32,1.171,3.0,1.097,0.018
03/06/2023,08:50:33,1.174,3.0,1.117,0.02
03/06/2023,08:51:32,1.106,3.0,1.137,0.02
03/06/2023,08:52:32,0.854,2.0,1.155,0.018
03/06/2023,08:53:32,0.840,2.0,1.171,0.016
03/06/2023,08:54:32,0.991,2.0,1.185,0.014
03/06/2023,08:55:32,0.836,2.0,1.201,0.016
03/06/2023,08:56:32,0.890,2.0,1.215,0.014
03/06/2023,08:57:32,1.176,3.0,1.235,0.02
03/06/2023,08:58:32,1.260,3.0,1.255,0.02
03/06/2023,08:59:32,1.113,3.0,1.276,0.021
03/06/2023,09:00:32,1.029,2.0,1.294,0.018
03/06/2023,09:01:32,0.910,2.0,1.312,0.018
03/06/2023,09:02:31,1.244,3.0,1.332,0.02
03/06/2023,09:03:32,1.290,3.0,1.353,0.021
03/06/2023,09:04:32,1.302,3.0,1.375,0.022
03/06/2023,09:05:32,1.308,3.0,1.397,0.022
03/06/2023,09:06:32,1.305,3.0,1.418,0.021
03/06/2023,09:07:32,1.331,3.0,1.44,0.022
03/06/2023,09:08:32,1.322,3.0,1.463,0.023
03/06/2023,09:09:32,1.327,3.0,1.485,0.022
03/06/2023,09:10:32,1.331,3.0,1.507,0.022
03/06/2023,09:11:32,1.347,3.0,1.529,0.022
03/06/2023,09:12:32,1.362,3.0,1.552,0.023
03/06/2023,09:13:32,1.341,3.0,1.574,0.022
03/06/2023,09:14:32,1.346,3.0,1.597,0.023
03/06/2023,09:15:32,1.326,3.0,1.618,0.021
03/06/2023,09:16:32,1.374,3.0,1.64,0.022
03/06/2023,09:17:32,1.394,3.0,1.663,0.023
03/06/2023,09:18:32,1.405,3.0,1.687,0.024
03/06/2023,09:19:32,1.427,3.0,1.71,0.023
03/06/2023,09:20:32,1.449,3.0,1.734,0.024
03/06/2023,09:21:31,1.437,3.0,1.758,0.024
03/06/2023,09:22:32,1.426,3.0,1.782,0.024
03/06/2023,09:23:32,1.431,3.0,1.806,0.024
03/06/2023,09:24:32,1.436,3.0,1.83,0.024
03/06/2023,09:25:32,1.437,3.0,1.854,0.024
03/06/2023,09:26:32,1.435,3.0,1.878,0.024
03/06/2023,09:27:32,1.449,3.0,1.902,0.024
03/06/2023,09:28:32,1.455,3.0,1.926,0.024
03/06/2023,09:29:34,1.447,3.0,1.951,0.025
03/06/2023,09:30:32,1.452,3.0,1.974,0.023
03/06/2023,09:31:32,1.471,3.0,1.999,0.025
03/06/2023,09:32:31,1.490,3.0,2.023,0.024
03/06/2023,09:33:32,1.490,3.0,2.048,0.025
03/06/2023,09:34:31,1.494,3.0,2.072,0.024
03/06/2023,09:35:32,1.500,3.0,2.097,0.025
03/06/2023,09:36:31,1.503,3.0,2.122,0.025
03/06/2023,09:37:32,1.512,3.0,2.147,0.025
03/06/2023,09:38:32,1.520,3.0,2.173,0.026
03/06/2023,09:39:32,1.519,3.0,2.198,0.025
03/06/2023,09:40:32,1.522,4.0,2.223,0.025
03/06/2023,09:41:32,1.528,4.0,2.249,0.026
03/06/2023,09:42:32,1.514,3.0,2.274,0.025
03/06/2023,09:43:32,1.541,4.0,2.3,0.026
03/06/2023,09:44:32,1.544,4.0,2.325,0.025
03/06/2023,09:45:32,1.553,4.0,2.351,0.026
03/06/2023,09:46:32,1.551,4.0,2.377,0.026
03/06/2023,09:47:32,1.574,4.0,2.403,0.026
03/06/2023,09:48:32,1.614,4.0,2.429,0.026
03/06/2023,09:49:32,1.631,4.0,2.456,0.027
03/06/2023,09:50:31,1.618,4.0,2.483,0.027
03/06/2023,09:51:32,1.625,4.0,2.51,0.027
03/06/2023,09:52:31,1.631,4.0,2.537,0.027
03/06/2023,09:53:32,1.634,4.0,2.564,0.027
03/06/2023,09:54:32,1.641,4.0,2.592,0.028
03/06/2023,09:55:32,1.648,4.0,2.619,0.027
03/06/2023,09:56:32,1.650,4.0,2.647,0.028
03/06/2023,09:57:32,1.653,4.0,2.674,0.027
03/06/2023,09:58:32,1.651,4.0,2.702,0.028